sat.trackr.live / text

‹ back to catalog

STARLINK-33745

NORAD 63714 · 2025-087T

PAYLOAD ACTIVE UNKNOWN

§ Identity

Operator
Country
US
Launch date
2025-04-28
Launch site
AFWTR
Launch vehicle
Mass (kg)
RCS (m²)

Purposes: comms

External: N2YO · Heavens-Above · Gunter

§ Orbital elements

Epoch: 2026-05-25T04:19:13.974240Z

Period
94.10 min
Inclination
53.1575°
Eccentricity
0.0001271
Mean motion
15.30208716 rev/d
Perigee alt
474.3 km
Apogee alt
476.1 km
Semi-major
6,853.3 km
B*
6.8901e-4
RAAN
224.0504°
Arg perigee
81.7679°
Mean anomaly
278.3466°
Rev number
6,091

§ Raw data

STARLINK-337451 63714U 25087T   26145.18002285  .00020108  00000+0  68901-3 0  99942 63714  53.1575 224.0504 0001271  81.7679 278.3466 15.30208716 60910

JSON: /api/v1/satellites/63714 · /tle

For live sub-satellite position, see the globe view (requires WebGL).

§ Visibility from observer

Set your observer location to see the next 7 days of passes ≥ 10°. The values pass through the URL so the page stays shareable.

No JS? Fill the form by hand. The geolocation button needs JavaScript.